• In Portugal
  • List of Countries
  • For 7 days
  • Water Temperature
  • Satellite Maps
  • Weather Map
  • Weather Widgets
  • user-avatar
    Login

    Hourly Weather Artashat

    Today, 17 December, Sunday

    Time Temperature Precipitation Wind Pressure Humidity
    00:00 -1°C° 0 mm 1 mps 602 mmHg 41%
    01:00 -2°C° 0 mm 1 mps 602 mmHg 41%
    02:00 -2°C° 0 mm 1 mps 602 mmHg 41%
    03:00 -2°C° 0 mm 1 mps 602 mmHg 41%
    04:00 -2°C° 0 mm 1 mps 602 mmHg 41%
    05:00 -3°C° 0 mm 1 mps 602 mmHg 41%
    06:00 -3°C° 0 mm 1 mps 602 mmHg 41%
    07:00 -2°C° 0 mm 1 mps 602 mmHg 40%
    08:00 -1°C° 0 mm 1 mps 603 mmHg 39%
    09:00 0°C° 0 mm 1 mps 603 mmHg 38%
    10:00 +1°C° 0 mm 1 mps 603 mmHg 37%
    11:00 +3°C° 0 mm 1 mps 603 mmHg 36%
    12:00 +4°C° 0 mm 1 mps 604 mmHg 35%
    13:00 +4°C° 0 mm 1 mps 603 mmHg 36%
    14:00 +4°C° 0 mm 1 mps 603 mmHg 37%
    15:00 +4°C° 0 mm 1 mps 603 mmHg 38%
    16:00 +2°C° 0 mm 1 mps 603 mmHg 40%
    17:00 +1°C° 0 mm 1 mps 602 mmHg 42%
    18:00 -1°C° 0 mm 1 mps 602 mmHg 44%
    19:00 -1°C° 0 mm 1 mps 602 mmHg 44%
    20:00 -1°C° 0 mm 1 mps 602 mmHg 44%
    21:00 -1°C° 0 mm 1 mps 602 mmHg 44%
    22:00 -2°C° 0 mm 1 mps 602 mmHg 44%
    23:00 -2°C° 0 mm 1 mps 602 mmHg 45%

    Tomorrow, 18 December, Monday

    Time Temperature Precipitation Wind Pressure Humidity
    00:00 -2°C° 0 mm 1 mps 602 mmHg 45%
    01:00 -2°C° 0 mm 1 mps 602 mmHg 46%
    02:00 -2°C° 0 mm 1 mps 602 mmHg 47%
    03:00 -2°C° 0 mm 1 mps 602 mmHg 48%
    04:00 -3°C° 0 mm 1 mps 602 mmHg 50%
    05:00 -3°C° 0 mm 1 mps 602 mmHg 51%
    06:00 -3°C° 0 mm 1 mps 601 mmHg 53%
    07:00 -2°C° 0 mm 1 mps 602 mmHg 52%
    08:00 -1°C° 0 mm 1 mps 602 mmHg 51%
    09:00 0°C° 0 mm 1 mps 603 mmHg 51%
    10:00 +1°C° 0 mm 1 mps 603 mmHg 49%
    11:00 +2°C° 0 mm 1 mps 603 mmHg 48%
    12:00 +4°C° 0 mm 1 mps 603 mmHg 47%
    13:00 +4°C° 0 mm 1 mps 603 mmHg 48%
    14:00 +4°C° 0 mm 1 mps 603 mmHg 50%
    15:00 +4°C° 0 mm 1 mps 603 mmHg 51%
    16:00 +3°C° 0 mm 1 mps 602 mmHg 54%
    17:00 -1°C° 0 mm 2 mps 602 mmHg 57%
    18:00 -2°C° 0 mm 2 mps 602 mmHg 60%
    19:00 -2°C° 0 mm 2 mps 602 mmHg 61%
    20:00 -3°C° 0 mm 2 mps 602 mmHg 62%
    21:00 -3°C° 0 mm 2 mps 602 mmHg 63%
    22:00 -3°C° 0 mm 2 mps 602 mmHg 64%
    23:00 -3°C° 0 mm 2 mps 602 mmHg 65%

    Day after tomorrow, 19 December, Tuesday

    Time Temperature Precipitation Wind Pressure Humidity
    00:00 -3°C° 0 mm 2 mps 602 mmHg 66%
    01:00 -3°C° 0 mm 2 mps 602 mmHg 67%
    02:00 -3°C° 0 mm 2 mps 602 mmHg 67%
    03:00 -4°C° 0 mm 2 mps 602 mmHg 68%
    04:00 -4°C° 0 mm 2 mps 602 mmHg 68%
    05:00 -4°C° 0 mm 2 mps 602 mmHg 69%
    06:00 -4°C° 0 mm 2 mps 602 mmHg 69%
    07:00 -3°C° 0 mm 2 mps 602 mmHg 66%
    08:00 -2°C° 0 mm 2 mps 603 mmHg 63%
    09:00 -1°C° 0 mm 2 mps 603 mmHg 60%
    10:00 +1°C° 0 mm 2 mps 603 mmHg 58%
    11:00 +2°C° 0 mm 2 mps 604 mmHg 55%
    12:00 +3°C° 0 mm 2 mps 604 mmHg 53%
    13:00 +3°C° 0 mm 2 mps 604 mmHg 53%
    14:00 +4°C° 0 mm 2 mps 603 mmHg 53%
    15:00 +4°C° 0 mm 2 mps 603 mmHg 53%
    16:00 +2°C° 0 mm 2 mps 603 mmHg 56%
    17:00 +1°C° 0 mm 2 mps 603 mmHg 59%
    18:00 -1°C° 0 mm 2 mps 603 mmHg 63%
    19:00 -1°C° 0 mm 2 mps 603 mmHg 63%
    20:00 -1°C° 0 mm 2 mps 603 mmHg 64%
    21:00 -1°C° 0 mm 2 mps 603 mmHg 64%
    22:00 -2°C° 0 mm 2 mps 603 mmHg 66%
    23:00 -2°C° 0 mm 2 mps 603 mmHg 67%

    20 December, Wednesday

    Time Temperature Precipitation Wind Pressure Humidity
    00:00 -2°C° 0 mm 2 mps 603 mmHg 69%
    01:00 -2°C° 0 mm 2 mps 603 mmHg 70%
    02:00 -2°C° 0 mm 2 mps 603 mmHg 70%
    03:00 -3°C° 0 mm 2 mps 603 mmHg 71%
    04:00 -3°C° 0 mm 2 mps 603 mmHg 72%
    05:00 -3°C° 0 mm 2 mps 603 mmHg 72%
    06:00 -3°C° 0 mm 2 mps 603 mmHg 72%
    07:00 -2°C° 0 mm 2 mps 604 mmHg 70%
    08:00 -1°C° 0 mm 2 mps 604 mmHg 67%
    09:00 +1°C° 0 mm 2 mps 605 mmHg 65%
    10:00 +2°C° 0.1 mm 2 mps 605 mmHg 64%
    11:00 +3°C° 0.1 mm 2 mps 605 mmHg 63%
    12:00 +4°C° 0.1 mm 2 mps 605 mmHg 62%
    13:00 +3°C° 0.2 mm 2 mps 605 mmHg 63%
    14:00 +3°C° 0.2 mm 2 mps 604 mmHg 65%
    15:00 +3°C° 0.2 mm 2 mps 604 mmHg 66%
    16:00 +3°C° 0.2 mm 2 mps 604 mmHg 68%
    17:00 +2°C° 0.2 mm 2 mps 604 mmHg 71%
    18:00 +1°C° 0.2 mm 2 mps 604 mmHg 73%
    19:00 +1°C° 0.2 mm 2 mps 604 mmHg 74%
    20:00 +1°C° 0.2 mm 2 mps 604 mmHg 74%
    21:00 +1°C° 0.2 mm 2 mps 604 mmHg 75%
    22:00 +1°C° 0 mm 2 mps 604 mmHg 75%
    23:00 +1°C° 0 mm 2 mps 604 mmHg 75%

    21 December, Thursday

    Time Temperature Precipitation Wind Pressure Humidity
    00:00 +1°C° 0 mm 2 mps 604 mmHg 75%
    01:00 +1°C° 0 mm 2 mps 604 mmHg 75%
    02:00 -1°C° 0 mm 2 mps 604 mmHg 75%
    03:00 -1°C° 0 mm 2 mps 603 mmHg 75%
    04:00 -1°C° 0 mm 2 mps 603 mmHg 75%
    05:00 -1°C° 0 mm 2 mps 603 mmHg 74%
    06:00 -1°C° 0 mm 2 mps 603 mmHg 74%
    07:00 -1°C° 0 mm 2 mps 604 mmHg 71%
    08:00 +1°C° 0 mm 2 mps 604 mmHg 69%
    09:00 +2°C° 0 mm 2 mps 604 mmHg 66%
    10:00 +3°C° 0 mm 2 mps 604 mmHg 63%
    11:00 +4°C° 0 mm 2 mps 604 mmHg 60%
    12:00 +5°C° 0 mm 2 mps 604 mmHg 57%
    13:00 +5°C° 0 mm 2 mps 604 mmHg 58%
    14:00 +5°C° 0 mm 2 mps 604 mmHg 58%
    15:00 +5°C° 0 mm 2 mps 603 mmHg 58%
    16:00 +4°C° 0 mm 2 mps 603 mmHg 62%
    17:00 +3°C° 0 mm 2 mps 603 mmHg 65%
    18:00 +2°C° 0 mm 2 mps 602 mmHg 69%
    19:00 +1°C° 0 mm 2 mps 602 mmHg 69%
    20:00 +1°C° 0 mm 2 mps 602 mmHg 69%
    21:00 +1°C° 0 mm 2 mps 601 mmHg 70%
    22:00 +1°C° 0 mm 2 mps 601 mmHg 70%
    23:00 +1°C° 0 mm 2 mps 601 mmHg 70%

    22 December, Friday

    Time Temperature Precipitation Wind Pressure Humidity
    00:00 +1°C° 0 mm 2 mps 600 mmHg 71%
    01:00 -1°C° 0 mm 2 mps 600 mmHg 71%
    02:00 -1°C° 0 mm 2 mps 599 mmHg 72%
    03:00 -1°C° 0 mm 2 mps 599 mmHg 73%
    04:00 -1°C° 0 mm 2 mps 599 mmHg 73%
    05:00 -1°C° 0 mm 2 mps 598 mmHg 73%
    06:00 -1°C° 0 mm 2 mps 598 mmHg 74%
    07:00 -1°C° 0.7 mm 2 mps 598 mmHg 75%
    08:00 -1°C° 0.7 mm 2 mps 598 mmHg 76%
    09:00 +1°C° 0.7 mm 2 mps 598 mmHg 77%
    10:00 +1°C° 0.4 mm 3 mps 598 mmHg 74%
    11:00 +1°C° 0.4 mm 3 mps 598 mmHg 72%
    12:00 +2°C° 0.4 mm 3 mps 598 mmHg 69%
    13:00 +2°C° 0.3 mm 3 mps 598 mmHg 69%
    14:00 +2°C° 0.3 mm 3 mps 598 mmHg 70%
    15:00 +2°C° 0.3 mm 3 mps 598 mmHg 70%
    16:00 +1°C° 0.1 mm 3 mps 598 mmHg 72%
    17:00 +1°C° 0.1 mm 2 mps 598 mmHg 74%
    18:00 -1°C° 0.1 mm 2 mps 598 mmHg 77%
    19:00 -1°C° 0.1 mm 2 mps 598 mmHg 77%
    20:00 -2°C° 0.1 mm 2 mps 598 mmHg 76%
    21:00 -2°C° 0.1 mm 2 mps 598 mmHg 76%
    22:00 -2°C° 0.1 mm 2 mps 598 mmHg 76%
    23:00 -3°C° 0.1 mm 2 mps 598 mmHg 75%
    Show more